Skip Page Navigation
NASA JPL Caltech
NASA Logo - Jet Propulsion Laboratory + View the NASA Portal
+ Center for Near-Earth Object Studies
JPL Home Earth Solar System Stars & Galaxies Technology
JPL Solar System Dynamics
BODIES ORBITS EPHEMERIDES TOOLS PHYSICAL DATA DISCOVERY FAQ SITE MAP
IMPORTANT: The SSD Announcement email list is now available. Major changes are coming in the near future, including possible hostname and/or URL changes. To be notified of such changes, subscribe to this email list.

Please visit this page for more details.


JPL Small-Body Database Browser
Search: [ help ]  
97117 (1999 VJ94)
Classification: Main-belt Asteroid          SPK-ID: 2097117
Ephemeris | Orbit Diagram | Orbital Elements | Mission Design | Physical Parameters | Discovery Circumstances | Close-Approach Data ]

[ show orbit diagram ]
Orbital Elements at Epoch 2458600.5 (2019-Apr-27.0) TDB
Reference: JPL 14 (heliocentric ecliptic J2000)
 Element Value Uncertainty (1-sigma)   Units 
e .07405614867707488 4.1989e-08  
a 2.608855204490921 1.5791e-08 au
q 2.415653435590181 1.076e-07 au
i 2.289634556147791 4.8725e-06 deg
node 41.19113316556137 0.00011228 deg
peri 20.62871330604099 0.00011674 deg
M 197.7976504982751 3.2473e-05 deg
tp 2459293.970562827436
(2021-Mar-20.47056283)
0.00014006 TDB
period 1539.123220993923
4.21
1.3974e-05
3.826e-08
d
yr
n .2338994013536629 2.1236e-09 deg/d
Q 2.802056973391661 1.696e-08 au
  Orbit Determination Parameters
   # obs. used (total)      640  
   data-arc span      9154 days (25.06 yr)  
   first obs. used      1993-04-16  
   last obs. used      2018-05-09  
   planetary ephem.      DE431  
   SB-pert. ephem.      SB431-N16  
   condition code      0  
   norm. resid. RMS      .52961  
   source      ORB  
   producer      Otto Matic  
   solution date      2019-Jul-13 08:34:36  

Additional Information
 Earth MOID = 1.42818 au 
 Jupiter MOID = 2.41279 au 
 T_jup = 3.406 
[ show covariance matrix ]

Ephemeris | Orbit Diagram | Orbital Elements | Mission Design | Physical Parameters | Discovery Circumstances | Close-Approach Data ]

Physical Parameter Table
Parameter Symbol Value Units Sigma Reference Notes
absolute magnitude H 15.4   n/a MPO436448  

97117 (1999 VJ94)          Discovered 1999-Nov-09 by LINEAR at Socorro
Reference: 20050224/Numbers.arcLast Updated: 2005-02-28

[ show close-approach data ]
Alternate Designations
 1999 VJ94 = 2001 BH68 
Ephemeris | Orbit Diagram | Orbital Elements | Mission Design | Physical Parameters | Discovery Circumstances | Close-Approach Data ]
ABOUT SSD CREDITS/AWARDS PRIVACY/COPYRIGHT GLOSSARY LINKS
FirstGov 2019-Oct-22 07:05 UT
(server date/time)  
NASA Home Page
Site Manager:   Ryan S. Park
Webmaster  Alan B. Chamberlin